Regional Weather Roundup
Issued by NWS

Home | Current Version | Previous Version | Text Only | Print | Product List | Glossary Off
Versions: 1 2 3 4 5 6 7 8 9 10 11 12 13 14 15 16 17 18 19 20 21 22 23 24 25 26 27 28 29 30 31 32 33 34 35 36 37 38 39 40 41 42 43 44 45 46 47 48 49 50

000
ASUS43 KOAX 020210
RWRNE

WEATHER ROUNDUP FOR NEBRASKA
NATIONAL WEATHER SERVICE OMAHA NE
900 PM CDT MON SEP 01 2014

NOTES: SATELLITE DATA IS BEING USED TO AUGMENT CLOUD COVER ABOVE
       12000 FEET.
       "FAIR" INDICATES FEW OR NO CLOUDS BELOW 12,000 FEET WITH NO
       SIGNIFICANT WEATHER AND/OR OBSTRUCTIONS TO VISIBILITY.

  * THESE STATIONS DO NOT REPORT WEATHER SUCH AS RAIN...SNOW OR FOG.

NEZ001>004-019>022-054>056-020300-
NEBRASKA PANHANDLE

CITY           SKY/WX    TMP DP  RH WIND       PRES   REMARKS
SCOTTSBLUFF    PTCLDY    62  47  57 NE8       30.02R
ALLIANCE       MOCLDY    57  48  72 NE6       30.02R
CHADRON        PTCLDY    57  52  83 CALM      29.99R
KIMBALL        MOCLDY    63  47  55 N18       30.04R
SIDNEY         MOCLDY    67  42  40 NE8       30.01R
$$

NEZ057>060-069>072-079>082-020300-
SOUTHWEST NEBRASKA

CITY           SKY/WX    TMP DP  RH WIND       PRES   REMARKS
NORTH PLATTE   PTCLDY    64  56  75 CALM      29.93R
IMPERIAL       CLEAR     70  50  49 S9        29.93R
LEXINGTON      CLEAR     63  58  84 S7        29.90S
MCCOOK         CLEAR     66  56  70 E9G23     29.91S
OGALLALA       LGT RAIN  64  53  67 N5G12     29.95R
$$

NEZ005>010-023>029-035>040-094-020300-
NORTH CENTRAL NEBRASKA

CITY           SKY/WX    TMP DP  RH WIND       PRES   REMARKS
VALENTINE      CLOUDY    57  52  83 NE8       29.93F
AINSWORTH      CLOUDY    57  54  89 N3        29.95R
BROKEN BOW     HVY RAIN  59  54  83 NE20G31   29.94R
O`NEILL        RAIN      60  57  92 NW20      29.98R
ORD            TSTM      57  54  89 N17G52    30.00R FOG
THEDFORD       MOCLDY    56  55  94 NW5       29.97R
$$

NEZ041-046>049-061>064-073>077-083>087-020300-
SOUTH CENTRAL NEBRASKA

CITY           SKY/WX    TMP DP  RH WIND       PRES   REMARKS
GRAND ISLAND   CLEAR     63  59  87 S5        29.89S
AURORA         CLEAR     63  61  93 S5        29.89S
HASTINGS       CLEAR     65  58  78 CALM      29.90F
HEBRON         CLEAR     64  59  84 CALM      29.89S
HOLDREGE       CLEAR     64  58  81 CALM      29.91F
KEARNEY *      CLEAR     61  55  82 SE8       29.90F
YORK           PTCLDY    66 N/A N/A S5        29.89F
$$

NEZ011>018-030>034-042>045-020300-
NORTHEAST NEBRASKA

CITY           SKY/WX    TMP DP  RH WIND       PRES   REMARKS
NORFOLK        CLEAR     66  61  84 SE5       29.87R
ALBION         CLEAR     65  58  78 CALM      29.88R
BLAIR          MOCLDY    69  62  79 CALM      29.88S
FREMONT        PTCLDY    69  63  80 CALM      29.88S
TEKAMAH        CLEAR     67  65  93 S6        29.86S
WAYNE          CLEAR     64  62  92 CALM      29.87S
$$

NEZ050>053-065>068-078-088>093-020300-
SOUTHEAST NEBRASKA

CITY           SKY/WX    TMP DP  RH WIND       PRES   REMARKS
LINCOLN        PTCLDY    71  64  78 CALM      29.88F
OMAHA EPPLEY   MOCLDY    68  63  84 N5        29.88R
BEATRICE       PTCLDY    65  62  90 N5        29.87S
FALLS CITY     PTCLDY    70  64  81 NE3       29.84F
NEBRASKA CITY  MOCLDY    67  64  90 CALM      29.87R
PLATTSMOUTH    LGT RAIN  69  65  86 W5        29.88R
$$

NEZ044-045-051>053-067-020300-
OMAHA AREA

CITY           SKY/WX    TMP DP  RH WIND       PRES   REMARKS
OMAHA EPPLEY   MOCLDY    68  63  84 N5        29.88R
BLAIR          MOCLDY    69  62  79 CALM      29.88S
FREMONT        PTCLDY    69  63  80 CALM      29.88S
MILLARD        PTCLDY    68  63  84 CALM      29.87R
OFFUTT AFB     MOCLDY    67  67 100 CALM      29.87S
PLATTSMOUTH    LGT RAIN  69  65  86 W5        29.88R
WAHOO          FAIR      67  63  85 S3        29.88S
$$



USA.gov is the U.S. government's official web portal to all federal, state and local government web resources and services.